GEFSMA_con_cape1000_162.txt.gz
Probability
100 100 100 100 90 97 100 100 94 94 94 84 61 42 45 45 35 26 45 94 84 81 71 61 65 58 61 61 58 55 52 48 45 39 39 26 19 29 23 16 16 13 10
100 100 100 100 100 97 97 97 97 97 100 87 71 65 48 52 58 45 35 77 87 90 87 77 68 65 58 52 45 55 48 48 42 32 39 39 29 19 23 23 19 16 10
100 100 100 100 100 97 97 97 97 90 87 84 77 74 77 68 61 61 39 42 58 90 94 94 87 74 65 65 58 48 48 52 48 55 52 39 26 29 13 16 13 23 19
100 100 100 100 97 97 94 90 90 90 87 87 81 81 90 90 77 71 61 71 48 35 74 94 84 84 74 65 61 61 61 61 52 52 52 39 42 35 32 29 23 26 29
97 100 100 97 97 94 90 81 84 87 90 87 81 87 74 81 77 55 74 65 65 55 32 58 87 84 81 71 65 68 68 61 61 58 45 39 35 45 45 32 39 39 29
97 100 100 97 97 90 90 87 87 90 90 87 52 52 68 74 71 61 61 61 71 55 42 29 39 58 81 81 77 77 74 71 74 68 61 55 45 52 55 42 39 42 32
94 97 100 94 90 90 90 90 90 84 87 90 71 65 68 71 61 77 71 52 39 52 45 35 16 29 19 71 81 81 77 74 74 68 65 65 58 58 58 61 42 39 32
94 90 97 94 90 84 81 84 87 84 84 81 74 55 29 42 68 23 68 68 45 42 39 35 52 61 35 26 13 58 71 74 74 77 71 68 61 58 61 58 42 32 19
94 97 94 90 84 84 84 77 81 74 77 77 77 61 32 19 32 52 52 35 58 58 45 39 45 65 61 45 29 10 58 65 77 58 71 65 58 55 52 52 48 35 26
94 97 97 81 81 84 84 81 71 84 74 77 74 74 58 55 45 32 45 48 68 58 42 26 16 55 55 55 55 13 26 29 55 58 68 68 61 48 45 45 39 39 32
90 87 87 84 84 81 81 81 81 77 74 74 74 71 45 58 39 32 29 23 32 48 52 48 39 32 35 45 45 23 10 10 16 45 52 55 55 52 52 35 26 23 29
81 81 77 81 77 84 87 77 77 68 68 68 74 74 52 52 32 42 32 29 29 42 42 39 42 45 45 32 35 23 6 3 3 10 29 42 42 42 42 39 26 26 26
87 84 65 81 74 77 81 81 68 71 68 61 58 61 61 65 48 48 52 26 39 45 42 39 29 32 16 29 35 10 6 3 0 0 0 0 6 19 23 29 29 23 26
71 77 71 77 77 71 68 74 65 61 61 55 48 61 58 58 61 45 39 42 35 35 35 45 39 32 19 32 19 0 0 0 0 0 0 0 0 0 3 3 3 10 19
65 68 61 68 74 68 74 74 74 77 71 52 58 68 58 52 61 55 58 61 45 13 19 26 32 35 42 39 10 3 19 3 0 0 0 0 0 0 0 0 0 0 0
68 65 61 71 68 74 71 71 65 71 71 61 61 58 52 42 48 55 55 58 52 39 26 32 32 32 35 13 3 16 23 0 0 0 0 0 0 0 0 0 0 0 0
68 68 65 68 65 61 68 68 48 61 65 61 61 55 48 45 42 48 55 58 58 42 32 29 32 29 39 39 10 23 26 16 3 0 0 0 0 0 0 0 0 0 0
61 65 68 65 61 52 55 52 48 48 48 55 55 58 52 42 55 48 42 35 39 35 26 19 19 23 32 35 32 32 13 6 6 0 0 0 0 0 0 0 0 0 0
61 55 58 45 52 55 52 48 42 35 48 55 48 48 45 48 48 39 35 35 32 19 26 23 16 26 23 26 26 26 6 10 6 0 0 0 0 0 0 0 0 0 0
48 48 48 48 42 42 39 39 32 32 39 52 45 42 42 29 29 29 32 29 26 26 23 19 10 13 13 26 19 10 10 10 6 0 0 0 0 0 0 0 0 0 0
42 45 55 42 39 29 26 26 32 29 29 29 26 29 26 29 23 19 13 26 19 23 16 6 3 3 6 6 10 6 3 3 3 6 0 0 0 0 0 0 0 0 0
48 42 35 32 35 19 3 6 16 26 23 19 23 19 19 16 6 0 0 0 0 6 3 3 3 3 6 10 10 6 6 6 6 6 6 3 0 0 0 0 0 0 0
39 35 32 35 23 13 3 0 0 16 13 13 10 10 6 3 3 6 0 0 0 0 0 0 0 0 3 6 6 3 6 3 3 3 6 3 3 0 3 0 0 0 0
29 29 26 29 26 6 3 0 0 6 13 6 10 10 6 6 6 6 6 6 6 0 0 0 0 0 0 0 3 3 3 3 6 3 3 0 0 0 0 0 0 0 0
32 29 26 26 19 3 3 0 0 3 10 6 6 6 6 3 3 3 3 3 3 6 0 0 0 0 0 0 0 0 0 0 0 0 3 3 3 3 0 0 0 0 0
29 19 16 16 10 6 3 0 0 0 3 6 10 3 3 3 3 3 3 3 3 3 3 3 0 0 0 0 0 0 0 0 0 0 0 0 0 0 0 0 0 0 0

GEFSMA_con_cape1000_168.txt.gz
Probability
19 23 19 23 23 13 10 10 6 6 3 0 0 3 0 3 6 10 35 71 84 87 84 71 74 81 77 74 68 58 55 42 52 58 48 52 42 23 35 19 13 16 19
23 16 19 19 19 13 16 10 10 6 3 3 0 3 0 0 3 10 19 55 84 84 81 81 77 68 68 68 77 74 61 52 52 65 58 52 45 39 35 29 19 19 13
26 23 26 13 10 6 10 10 6 3 10 3 3 0 0 0 0 6 13 16 45 81 84 84 84 74 68 68 61 65 68 71 58 58 55 45 39 32 32 32 26 26 16
23 23 23 13 10 13 13 13 13 13 13 3 3 0 3 0 0 0 3 10 10 29 74 90 90 87 74 71 74 68 65 77 61 58 52 45 32 29 26 23 26 19 16
39 26 23 19 16 19 16 19 13 13 13 3 3 0 3 3 0 0 0 3 6 6 10 55 97 90 77 74 71 71 71 61 61 48 45 32 45 42 26 23 19 23 19
48 32 29 23 16 16 13 10 6 10 3 6 10 6 3 0 0 0 0 0 0 0 0 13 35 71 87 87 84 74 71 65 58 55 45 39 42 45 35 29 26 26 19
45 29 39 26 16 16 13 10 3 3 3 0 3 3 3 0 0 0 0 0 0 0 0 0 6 10 26 74 77 84 84 81 77 65 55 48 52 61 32 29 23 23 19
48 39 29 23 13 6 6 3 3 3 0 3 0 0 3 0 0 0 0 0 0 0 0 0 0 3 3 6 13 61 81 84 77 74 68 61 55 48 29 32 23 19 13
48 32 19 19 10 10 10 6 6 0 3 3 0 0 0 0 0 0 0 0 0 0 0 0 0 0 0 0 0 10 58 74 77 65 65 61 42 35 32 32 26 26 10
45 26 13 16 13 13 13 6 6 3 3 0 3 3 0 0 0 0 0 0 0 0 0 0 3 0 0 0 0 3 6 26 61 71 68 74 55 42 29 29 26 26 23
35 32 19 16 13 13 13 6 6 3 3 3 3 3 3 0 0 0 0 0 0 0 0 0 0 0 0 0 0 0 0 0 13 32 48 65 58 45 32 29 29 26 26
29 23 26 19 13 13 13 6 6 6 3 3 3 3 3 0 0 0 0 0 0 0 0 0 0 0 0 0 0 3 0 3 0 0 16 32 39 35 35 32 26 23 26
23 19 29 23 19 16 16 10 6 6 6 3 0 0 0 0 0 0 0 0 0 0 0 0 0 0 0 0 0 3 3 3 0 0 0 0 10 19 29 29 29 29 23
19 19 10 13 16 16 13 10 10 13 6 6 6 3 3 0 0 0 0 0 0 0 0 0 0 0 0 0 0 0 0 0 0 0 0 0 0 0 0 0 6 6 6
16 6 6 10 10 10 10 10 10 10 6 6 6 6 3 3 0 0 0 0 0 0 0 0 0 0 0 0 0 0 0 0 0 0 0 0 0 0 0 0 0 0 0
16 10 10 10 10 6 6 6 6 10 6 6 6 6 6 3 0 0 0 0 0 0 0 0 0 0 0 0 0 0 0 0 0 0 0 0 0 0 0 0 0 0 0
13 6 6 6 3 3 6 6 6 10 6 6 6 6 6 6 3 3 0 0 0 0 0 0 0 0 0 0 0 0 0 0 0 0 0 0 0 0 0 0 0 0 0
16 10 3 3 6 6 6 6 10 10 6 6 6 3 3 6 6 3 0 0 0 0 0 0 0 0 0 0 0 0 0 0 0 0 0 0 0 0 0 0 0 0 0
19 16 10 13 10 13 6 6 10 10 6 6 3 3 3 0 0 3 3 0 0 0 0 0 0 0 0 0 0 0 0 0 0 0 0 0 0 0 0 0 0 0 0
19 16 16 13 16 19 16 6 6 3 6 6 6 6 0 0 0 0 0 3 0 0 0 0 0 0 0 0 0 0 0 0 0 0 0 0 0 0 0 0 0 0 0
16 13 13 13 16 16 10 10 6 3 3 0 3 0 0 0 0 0 0 0 0 0 0 0 0 0 0 0 0 0 0 0 0 0 0 0 0 0 0 0 0 0 0
13 16 16 13 13 16 10 3 0 6 6 3 3 3 3 0 0 0 0 0 0 0 0 0 0 0 0 0 0 0 0 0 0 0 0 0 0 0 0 0 0 0 0
13 13 13 13 6 6 6 0 0 3 3 3 3 3 3 3 3 3 0 0 0 0 0 0 0 0 0 0 0 0 0 0 0 0 0 0 0 0 0 0 0 0 0
10 10 10 6 6 3 0 0 0 0 3 3 3 3 3 3 3 3 3 3 0 0 0 0 0 0 0 0 0 0 0 0 0 0 0 0 0 0 0 0 0 0 0
3 3 3 3 3 3 0 0 0 0 0 0 0 3 3 3 3 0 0 3 3 3 0 0 0 0 0 0 0 0 0 0 0 0 0 0 0 0 0 0 0 0 0
0 0 0 0 3 3 3 0 0 0 3 0 0 0 0 0 3 0 0 0 0 3 3 3 0 0 0 0 0 0 0 0 0 0 0 0 0 0 0 0 0 0 0

GEFSMA_con_cape1000_174.txt.gz
Probability
19 16 19 23 13 16 16 13 13 10 6 6 10 10 13 10 16 23 39 61 74 77 77 68 61 61 55 52 55 65 55 39 35 42 39 26 29 26 13 19 23 19 16
10 10 10 6 10 10 13 16 13 6 3 3 6 3 6 10 13 19 23 52 71 74 77 71 65 55 55 52 52 48 45 39 35 35 32 39 39 29 19 16 16 16 16
6 6 6 6 6 3 3 10 3 3 6 3 3 0 3 3 3 3 16 39 52 68 71 74 74 71 71 55 55 52 55 42 45 39 39 42 32 35 32 29 16 19 13
10 6 6 6 3 3 3 10 6 6 6 3 0 0 6 10 3 3 6 13 35 42 61 68 77 74 74 71 61 58 58 65 45 35 26 23 26 29 26 23 23 19 13
13 6 10 6 3 3 3 10 10 6 10 3 3 0 3 3 3 3 6 10 10 23 42 45 77 84 71 71 74 71 68 58 58 48 29 26 26 23 23 29 23 23 19
29 10 6 10 3 6 6 6 10 3 6 6 0 0 3 3 3 3 3 3 6 6 6 6 45 58 68 74 71 68 68 61 58 45 35 32 26 29 19 19 19 19 16
29 16 10 13 6 10 10 10 10 3 3 0 3 0 0 0 0 0 0 3 3 3 3 6 6 10 29 48 71 74 71 71 65 58 48 39 42 42 32 23 23 19 16
29 19 10 10 10 10 6 3 0 0 0 0 0 0 0 0 0 0 3 3 3 3 3 3 3 6 10 13 16 39 61 65 65 68 61 58 45 42 32 32 19 19 16
32 26 13 6 6 6 6 6 3 0 0 0 0 0 0 0 0 0 0 0 3 3 0 3 3 6 6 6 6 6 26 61 55 58 68 65 48 39 35 29 26 23 16
19 19 13 6 6 6 6 6 6 0 0 0 0 0 0 0 0 0 0 0 0 0 0 0 3 6 6 6 6 3 3 16 35 42 61 68 52 39 29 26 26 23 19
16 16 13 6 6 6 6 6 6 6 3 3 3 3 3 0 0 0 0 0 0 0 0 0 0 3 3 6 6 6 3 3 6 19 42 42 48 45 32 35 32 19 19
10 13 16 10 6 6 6 6 6 6 6 3 3 3 3 3 0 0 0 0 0 0 0 0 0 0 3 3 3 3 3 3 3 0 3 10 35 39 35 35 29 26 26
10 13 13 6 6 6 6 6 6 6 6 6 0 0 0 0 0 0 0 0 0 0 0 0 0 0 0 3 3 3 3 3 3 0 0 0 3 6 13 26 23 23 19
6 10 13 6 6 10 6 6 6 6 6 6 6 3 0 0 0 0 0 0 0 0 0 0 0 0 0 0 0 0 3 3 3 0 0 0 0 0 0 0 0 0 0
3 10 10 10 6 10 10 10 6 6 6 6 6 6 6 3 0 0 0 0 0 0 0 0 0 0 0 0 0 0 3 0 0 0 0 0 0 0 0 0 0 0 0
3 3 6 6 6 6 10 10 6 6 6 6 6 6 6 6 3 3 0 0 0 0 0 0 0 0 0 0 0 0 0 0 0 0 0 0 0 0 0 0 0 0 0
3 3 6 6 6 6 6 6 6 6 6 6 6 3 3 6 3 3 3 3 0 0 0 0 0 0 0 0 0 0 0 0 0 0 0 0 0 0 0 0 0 0 0
10 10 10 6 6 6 6 6 6 10 10 6 6 3 3 3 3 3 3 3 3 0 0 0 0 0 0 0 0 0 0 0 0 0 0 0 0 0 0 0 0 0 0
16 13 13 13 6 6 6 6 6 6 10 6 6 6 6 3 3 0 0 0 0 0 0 0 0 0 0 0 0 0 0 0 0 0 0 0 0 0 0 0 0 0 0
13 16 16 13 13 10 6 6 6 6 6 6 3 3 3 3 3 0 0 3 0 0 0 0 0 0 0 0 0 0 0 0 0 0 0 0 0 0 0 0 0 0 0
13 10 10 10 10 10 10 10 3 6 6 6 3 0 3 0 0 0 0 3 3 0 0 0 0 0 0 0 0 0 0 0 0 0 0 0 0 0 0 0 0 0 0
10 10 10 10 10 6 3 0 0 3 3 3 3 3 3 0 0 0 0 0 0 0 0 0 0 0 0 0 0 0 0 0 0 0 0 0 0 0 0 0 0 0 0
10 10 10 10 6 6 0 0 0 0 0 0 3 3 3 3 0 0 0 0 0 0 0 0 0 0 0 0 0 0 0 0 0 0 0 0 0 0 0 0 0 0 0
10 6 6 6 6 3 3 0 0 0 0 0 0 0 0 0 0 3 3 3 3 0 0 0 0 0 0 0 0 0 0 0 0 0 0 0 0 0 0 0 0 0 0
3 0 0 0 3 3 0 0 0 0 0 0 0 0 0 3 0 0 0 3 3 3 0 0 0 0 0 0 0 0 0 0 0 0 0 0 0 0 0 0 0 0 0
0 0 0 0 0 0 0 0 0 0 0 0 0 3 0 0 0 0 0 0 0 3 3 3 0 0 0 0 0 0 0 0 0 0 0 0 0 0 0 0 0 0 0

GEFSMA_con_cape1000_180.txt.gz
Probability
68 65 74 68 55 48 42 58 35 48 42 26 23 26 26 29 32 23 58 68 68 71 58 58 48 52 48 52 52 61 48 32 39 42 48 39 32 26 19 13 26 23 16
74 71 77 77 61 45 45 42 35 61 45 39 39 42 32 32 45 39 35 61 65 65 61 61 48 55 52 55 52 55 45 39 39 35 42 35 32 19 16 19 19 19 23
90 74 68 74 58 48 55 58 48 55 55 52 42 42 48 45 42 35 32 39 65 61 65 61 52 52 48 48 52 48 48 42 42 42 35 39 35 29 23 23 16 13 23
87 87 74 61 68 61 65 65 58 65 58 52 35 42 48 65 48 55 42 52 39 35 58 61 61 61 58 52 52 52 55 55 45 32 26 23 26 19 32 32 19 19 19
84 90 74 74 81 55 58 65 68 58 65 55 52 68 42 48 45 42 48 42 45 42 39 58 58 68 58 55 65 58 61 58 61 48 32 26 26 23 23 32 26 23 19
90 84 77 84 71 71 74 77 74 71 68 61 42 39 35 45 42 45 45 45 52 39 26 29 48 45 61 61 74 65 68 65 65 55 52 39 32 29 23 26 19 23 19
84 84 77 84 90 77 81 68 71 65 61 61 61 61 48 35 42 52 48 48 39 45 42 42 55 55 52 42 45 71 65 68 68 68 61 52 52 42 29 23 23 19 13
87 81 87 84 87 90 84 81 81 77 61 58 58 61 42 32 48 16 45 52 32 26 32 35 55 68 61 48 32 35 48 55 68 68 68 68 55 45 39 26 19 13 13
84 90 84 77 77 71 74 84 84 77 68 65 61 52 55 29 29 23 32 35 39 39 35 39 39 55 68 58 58 23 39 48 61 58 74 77 61 42 26 26 19 23 16
84 87 84 84 77 71 77 71 61 71 74 65 65 71 55 42 35 26 32 29 48 55 32 29 26 35 55 52 71 32 19 19 32 48 61 71 68 42 29 26 23 23 19
84 84 81 81 81 74 74 71 71 77 71 71 65 61 55 65 39 39 39 35 26 26 26 35 39 35 48 52 71 42 16 3 3 19 26 42 58 55 39 32 32 29 29
81 77 77 77 74 77 74 74 74 71 68 74 71 65 45 39 42 55 39 45 45 19 29 35 32 39 39 39 23 6 6 3 3 3 3 13 26 32 35 29 39 35 32
71 77 68 74 68 68 71 74 74 68 58 61 71 65 48 39 45 55 42 29 29 23 29 29 29 32 32 32 42 6 3 3 3 3 3 3 3 13 13 26 29 23 23
58 68 71 71 71 68 58 68 65 61 55 55 45 61 55 35 39 42 45 29 32 32 26 19 23 16 23 29 23 3 13 3 3 0 0 0 0 0 0 0 0 0 3
58 55 58 61 61 61 61 58 55 61 61 48 45 48 55 42 35 32 39 39 42 23 13 35 35 13 23 45 19 39 45 10 3 0 0 0 0 0 0 0 0 0 0
55 55 58 61 58 58 58 58 45 45 45 48 52 42 52 39 42 39 42 48 35 29 16 6 35 16 52 6 6 35 45 10 3 0 0 0 0 0 0 0 0 0 0
58 55 52 58 52 55 52 52 39 39 35 42 42 42 48 55 55 45 45 35 39 32 23 13 26 29 42 45 32 35 39 42 16 0 0 0 0 0 0 0 0 0 0
45 45 42 48 42 35 48 48 39 35 35 35 39 39 42 45 52 52 48 45 45 45 39 29 29 19 35 32 42 42 13 6 13 0 0 0 0 0 0 0 0 0 0
45 42 45 35 39 35 35 39 39 35 35 35 39 39 35 35 42 48 52 42 39 29 42 29 19 35 26 23 26 19 13 19 10 3 0 0 0 0 0 0 0 0 0
45 45 45 42 45 39 32 29 32 35 35 35 32 35 35 32 39 39 35 39 32 29 39 26 23 26 23 16 16 10 10 13 13 6 0 0 0 0 0 0 0 0 0
39 45 45 45 39 32 29 29 32 26 32 29 32 29 29 13 10 10 16 26 26 23 26 19 19 19 19 16 16 13 10 6 6 3 10 3 3 3 3 0 0 0 0
35 42 39 42 39 23 6 6 13 29 29 29 26 23 16 10 10 0 0 0 3 16 19 19 16 16 16 13 13 10 10 10 6 6 6 10 10 6 3 3 0 0 0
39 39 42 42 32 19 3 0 0 13 19 19 23 19 10 6 6 10 0 0 0 0 0 10 6 6 6 10 10 6 10 6 3 3 6 10 10 10 6 3 0 0 0
35 35 35 26 23 6 0 0 0 10 10 13 13 13 13 10 3 6 6 6 6 3 3 0 3 3 3 3 6 6 6 3 6 6 3 3 6 10 0 6 0 0 0
29 23 19 19 16 3 0 0 0 3 10 10 10 6 6 6 0 0 3 3 3 6 3 0 0 0 0 0 0 0 3 3 3 3 6 3 6 3 3 6 3 0 0
10 13 13 10 13 6 0 0 0 3 3 6 6 6 0 0 0 0 0 0 0 0 0 0 0 0 0 0 0 0 0 0 0 3 3 3 3 3 3 3 3 3 0

GEFSMA_con_cape1000_186.txt.gz
Probability
97 94 94 97 84 90 90 100 94 94 81 58 48 45 52 52 45 58 35 65 71 71 65 58 55 55 48 45 39 45 35 32 32 42 42 32 23 26 23 26 26 23 19
97 100 97 97 90 84 84 87 90 97 84 87 74 68 68 45 71 61 42 55 77 77 68 52 48 52 55 55 45 45 42 48 48 48 45 42 35 35 16 10 29 23 23
97 94 94 97 87 94 90 84 87 90 87 81 87 74 68 68 61 68 61 35 35 74 77 68 68 58 55 52 52 45 58 55 58 52 52 52 45 35 26 19 19 29 19
100 100 94 94 94 97 97 94 94 97 94 84 84 84 77 90 77 65 71 71 45 35 48 81 74 74 58 58 55 58 55 55 58 42 39 32 32 35 29 19 23 32 29
97 94 94 97 94 94 94 84 90 94 87 81 84 87 87 81 81 71 68 68 68 61 45 52 81 71 68 65 61 55 61 61 61 52 39 26 23 32 29 19 26 26 26
90 94 94 94 94 90 90 97 90 84 87 84 55 61 74 74 74 71 68 61 58 58 45 39 45 55 77 84 81 74 65 68 65 61 45 42 29 32 23 13 16 19 16
94 94 87 90 90 90 90 84 84 77 81 81 77 68 58 61 65 71 71 74 71 55 55 61 42 45 26 58 74 77 77 74 71 74 61 52 45 42 29 23 16 16 10
94 84 90 87 90 94 94 90 87 84 77 71 77 74 48 45 55 39 65 65 58 68 58 52 68 65 58 35 19 45 68 71 71 65 65 55 48 45 32 23 16 13 13
84 90 90 94 90 90 87 90 81 81 87 84 81 58 48 26 55 65 55 48 61 58 58 35 58 55 48 42 32 16 45 58 65 68 77 68 42 23 23 23 23 19 10
90 90 90 90 90 90 90 81 77 87 81 87 87 74 65 55 39 35 55 58 48 61 58 26 23 29 35 45 48 32 23 23 48 65 71 71 65 29 23 23 29 26 19
90 90 90 90 90 90 87 84 77 84 81 77 81 71 65 71 58 39 26 35 35 55 48 55 48 48 39 32 39 35 19 10 13 26 42 55 58 58 35 29 23 19 23
90 87 87 90 87 87 87 87 87 84 77 71 71 68 65 58 48 35 23 35 29 39 48 52 52 39 48 42 29 19 16 10 6 6 16 23 35 42 42 39 32 26 32
77 84 74 81 84 81 81 81 81 77 81 68 61 58 61 52 58 48 42 29 32 42 45 39 39 42 26 32 29 16 10 6 3 3 3 3 10 19 23 19 32 32 23
61 77 74 74 74 71 68 71 68 71 68 58 52 55 55 52 52 45 48 42 23 19 29 26 35 29 29 26 26 6 6 3 3 3 3 3 3 3 3 3 10 13 13
58 71 71 68 65 65 65 71 71 68 65 58 58 61 58 48 48 42 52 39 23 3 10 26 35 32 23 35 16 10 23 3 3 0 0 0 3 3 3 3 0 0 0
61 65 65 58 55 55 61 61 65 65 55 55 58 58 58 52 48 52 42 42 32 16 13 23 26 23 26 16 13 16 23 6 0 0 0 0 0 0 0 0 0 0 0
52 52 52 52 52 55 58 61 58 48 52 48 42 45 48 48 42 42 42 39 42 29 10 13 23 26 29 26 10 16 16 10 10 0 0 0 0 0 0 0 0 0 0
45 52 52 52 52 52 58 52 52 52 52 45 45 48 42 42 45 42 32 29 35 26 19 10 16 13 19 13 16 13 6 6 6 0 0 0 0 0 0 0 0 0 0
39 45 45 45 45 45 45 48 42 42 35 39 39 42 39 32 39 39 35 29 32 23 29 19 16 19 19 6 6 10 10 10 6 0 0 0 0 0 0 0 0 0 0
39 35 35 39 42 42 32 35 39 35 32 32 32 35 32 32 32 32 19 26 26 26 32 16 13 10 10 3 6 6 3 6 6 0 0 0 0 0 0 0 0 0 0
32 35 35 35 39 32 29 29 35 29 32 29 35 35 29 13 10 10 10 16 16 16 19 13 13 13 10 6 3 3 3 3 3 3 3 3 0 0 0 0 0 0 0
32 32 29 26 23 13 6 0 6 39 39 32 29 29 19 10 6 0 6 6 6 6 6 10 10 6 6 3 3 3 3 3 3 3 3 3 3 3 0 0 0 0 0
32 35 29 26 16 13 0 0 0 13 29 23 19 23 10 3 3 6 0 0 0 0 0 3 3 6 6 3 0 3 3 3 3 3 3 3 3 3 3 3 0 0 0
32 29 23 23 16 13 0 0 0 6 13 16 16 16 10 6 3 3 3 6 3 0 0 0 3 3 3 0 0 0 0 0 3 3 0 0 0 3 0 0 0 0 0
29 26 19 19 16 13 0 0 0 6 6 10 3 3 3 3 0 0 0 3 3 0 0 0 0 0 0 0 0 0 0 0 0 0 0 0 0 0 0 0 0 0 0
26 19 19 16 13 13 0 0 0 3 3 3 3 3 0 0 0 0 0 0 0 0 0 0 0 0 0 0 0 0 0 0 0 0 0 0 0 0 0 0 0 0 0

GEFSMA_con_cape1000_192.txt.gz
Probability
19 10 23 23 23 19 13 13 10 0 0 0 0 0 0 0 3 3 19 65 77 81 71 68 65 68 68 61 52 35 42 45 48 45 45 29 39 39 32 29 35 29 32
16 16 6 19 13 13 16 16 10 6 0 0 3 3 0 0 0 3 10 45 74 84 81 74 58 68 65 61 55 52 55 42 48 52 45 32 26 39 26 32 32 29 26
23 10 10 16 10 3 6 6 6 0 0 0 0 0 0 0 3 3 10 10 26 71 77 81 74 74 65 58 52 45 55 58 58 45 42 42 39 29 29 35 32 29 26
13 13 13 16 13 13 6 6 6 3 3 0 0 0 3 0 0 3 3 0 6 10 48 68 74 71 65 68 58 45 42 52 48 45 35 32 35 26 19 29 32 29 23
23 13 10 13 16 16 10 6 6 3 3 0 3 3 3 3 6 6 3 3 3 3 6 32 77 74 58 58 55 58 55 45 52 39 32 29 26 26 26 19 13 23 16
29 16 6 16 16 13 13 10 6 6 3 0 3 3 0 0 0 0 0 0 3 3 6 10 19 39 61 71 68 58 65 68 48 42 35 32 23 29 19 16 10 13 16
26 19 23 19 16 13 6 3 6 3 3 3 0 0 0 0 0 0 0 0 0 0 3 6 6 3 10 48 65 68 68 68 61 45 35 29 19 23 19 16 10 10 10
29 39 23 19 19 16 10 6 3 3 3 3 0 0 0 0 0 0 0 0 0 0 0 0 3 3 3 6 6 42 58 61 65 61 45 35 29 19 16 13 10 6 6
35 39 26 19 16 13 13 13 13 6 6 3 3 0 0 0 0 0 0 0 0 0 0 0 3 3 0 0 3 6 39 45 61 58 61 42 32 23 10 10 10 10 10
39 39 35 32 19 19 16 13 13 13 6 3 3 3 0 0 0 0 0 0 0 0 0 3 3 3 3 0 0 0 6 13 42 52 65 58 42 26 23 16 13 13 13
42 35 39 29 26 23 19 16 10 10 10 6 6 3 3 0 0 0 0 0 0 0 0 3 6 3 3 3 3 0 3 6 6 26 55 55 55 42 26 26 19 19 19
35 39 39 29 23 19 16 13 10 10 13 13 13 3 0 3 0 0 0 0 0 0 0 0 3 3 0 0 3 3 3 3 3 3 3 23 42 48 45 35 26 26 23
29 29 29 23 23 23 23 16 13 16 16 16 16 13 13 3 0 0 0 0 0 0 0 0 0 0 3 0 0 3 3 3 3 3 3 3 3 13 26 32 29 23 19
29 23 29 23 23 23 23 19 16 19 16 16 19 13 10 6 6 0 0 0 0 0 0 0 0 0 0 0 0 0 3 3 3 0 0 0 3 3 3 3 6 6 6
29 26 29 23 23 19 16 19 16 13 19 19 16 16 13 13 6 6 0 0 0 0 0 0 0 0 0 0 0 0 0 0 3 0 0 0 0 0 3 3 3 3 3
29 26 16 19 19 19 16 13 13 16 16 10 10 6 6 6 3 6 3 0 0 0 0 0 0 0 0 0 0 0 0 0 0 0 0 0 0 0 0 0 0 0 0
23 23 23 19 19 16 10 10 13 13 10 10 6 10 13 6 10 10 6 0 0 0 0 0 0 0 0 0 0 0 0 0 0 0 0 0 0 0 0 0 0 0 0
23 23 19 19 19 16 13 10 10 6 6 10 6 6 10 10 6 10 6 0 0 0 0 0 0 0 0 0 0 0 0 0 0 0 0 0 0 0 0 0 0 0 0
16 16 16 13 13 13 13 13 10 6 10 6 10 10 10 6 6 6 3 0 0 0 0 0 0 0 0 0 0 0 0 0 0 0 0 0 0 0 0 0 0 0 0
16 16 13 13 10 6 6 10 13 10 10 6 3 3 3 3 3 0 0 0 0 0 0 0 0 0 0 0 0 0 0 0 0 0 0 0 0 0 0 0 0 0 0
16 13 10 10 10 10 6 6 6 3 3 0 0 0 0 0 0 0 0 0 0 0 0 0 0 0 0 0 0 0 0 0 0 0 0 0 0 0 0 0 0 0 0
13 10 10 10 3 3 3 3 0 0 0 0 0 0 0 0 0 0 0 0 0 0 0 0 0 0 0 0 0 0 0 0 0 0 0 0 0 0 0 0 0 0 0
10 10 6 3 3 3 3 3 0 0 0 0 0 0 0 0 0 0 0 0 0 0 0 0 0 0 0 0 0 0 0 0 0 0 0 0 0 0 0 0 0 0 0
3 3 0 3 3 3 3 3 0 0 0 0 0 0 0 0 0 0 0 0 0 0 0 0 0 0 0 0 0 0 0 0 0 0 0 0 0 0 0 0 0 0 0
3 3 0 0 0 0 0 0 0 0 0 0 0 0 0 0 0 0 0 0 0 0 0 0 0 0 0 0 0 0 0 0 0 0 0 0 0 0 0 0 0 0 0
3 0 0 0 0 0 0 0 0 0 0 0 0 0 0 0 0 0 0 0 0 0 0 0 0 0 0 0 0 0 0 0 0 0 0 0 0 0 0 0 0 0 0